235  
NZUS99 KIND 310009  
HRRIND  
 
WEATHER ROUNDUP FOR INDIANA AND SURROUNDING STATES  
NATIONAL WEATHER SERVICE INDIANAPOLIS IN  
800 PM EDT THU MAR 30 2017  
   
..INDIANA
 
 
 
CITY SKY/WX TMP DP RH WIND PRES REMARKS  
INDIANAPOLIS TSTM 57 55 93 NW14 29.61R  
6HR MIN TEMP: 57; 6HR MAX TEMP: 73; 6HR PCP: 0.54;  
 
EAGLE CREEK LGT RAIN 58 53 84 NW10 29.61F  
6HR MIN TEMP: 58; 6HR MAX TEMP: 73; 6HR PCP: 0.36;  
 
ZIONSVILLE HVY RAIN 55 53 91 W5 29.63S  
6HR MIN TEMP: 55; 6HR MAX TEMP: 66; 6HR PCP: 0.36;  
 
FISHERS CLOUDY 55 55 100 W9G16 29.62R  
MOUNT COMFORT CLOUDY 57 54 88 W15 29.62R  
GREENWOOD CLOUDY 60 55 85 W8G20 29.61S  
6HR MIN TEMP: 60; 6HR MAX TEMP: 76;  
 
SHELBYVILLE CLOUDY 65 51 60 W18 29.59R  
6HR MIN TEMP: 65; 6HR MAX TEMP: 75; 6HR PCP: 0.05;  
 

 
 
CITY SKY/WX TMP DP RH WIND PRES REMARKS  
LAFAYETTE RAIN 56 55 97 NE3 29.58F FOG  
6HR MIN TEMP: 54; 6HR MAX TEMP: 59; 6HR PCP: 0.64;  
 
KOKOMO RAIN 57 54 89 W20 29.61F  
6HR MIN TEMP: 49; 6HR MAX TEMP: 57; 6HR PCP: 0.42;  
 
FRANKFORT RAIN 57 55 93 W5G10 29.62F  
6HR MIN TEMP: 57; 6HR MAX TEMP: 66; 6HR PCP: 0.63;  
 
CRAWFORDSVILLE LGT RAIN 53 53 100 CALM 29.60F  
6HR MIN TEMP: 52; 6HR MAX TEMP: 67; 6HR PCP: 0.78;  
 
MUNCIE TSTM 58 55 90 W9G25 29.64R FOG  
6HR MIN TEMP: 56; 6HR MAX TEMP: 63; 6HR PCP: 0.27;  
 
GREENCASTLE RAIN 55 54 94 CALM 29.63R  
TERRE HAUTE LGT RAIN 58 55 90 E7 29.58F  
6HR MIN TEMP: 56; 6HR MAX TEMP: 73; 6HR PCP: 0.81;  
 
BLOOMINGTON LGT RAIN 59 55 87 W8 29.62R  
6HR MIN TEMP: 58; 6HR MAX TEMP: 77; 6HR PCP: 0.29;  
 
CAMP ATTERBURY CLOUDY 68 50 52 W24G30 29.62R  
COLUMBUS CLEAR 68 57 68 S8 29.57R  
SEYMOUR CLOUDY 68 55 64 S5 29.58  
NORTH VERNON CLOUDY 72 52 49 S13G20 29.59R  

 
 
CITY SKY/WX TMP DP RH WIND PRES REMARKS  
GARY CLOUDY 45 43 93 MISG 29.62R FOG  
VALPARAISO LGT RAIN 48 46 93 E9 29.62R  
6HR MIN TEMP: 47; 6HR MAX TEMP: 51; 6HR PCP: 0.21;  
 
LA PORTE LGT RAIN 46 44 95 E10 29.62S  
6HR MIN TEMP: 45; 6HR MAX TEMP: 48; 6HR PCP: 0.20;  
 
MICHIGAN CITY LGT RAIN 45 45 100 E5 29.62F WCI 42  
SOUTH BEND CLOUDY 43 50 100 E9 29.63R WCI 38  
6HR MIN TEMP: 43; 6HR MAX TEMP: 46; 6HR PCP: 0.41;  
 
ELKHART CLOUDY 43 39 87 E10 29.63R WCI 37  
GOSHEN CLOUDY 44 40 85 E10 29.63S WCI 39  
6HR MIN TEMP: 44; 6HR MAX TEMP: 46; 6HR PCP: 0.15;  
 
ANGOLA CLOUDY 39 32 75 E10 29.65R WCI 32  
KENDALLVILLE CLOUDY 42 42 98 E12 29.63F WCI 36  
AUBURN MOCLDY 43 41 93 NE9 29.63F WCI 37  
RENSSELAER LGT RAIN 50 50 100 NE12 29.58F  
KNOX CLOUDY 46 36 66 E6 29.63R  
ROCHESTER RAIN 52 50 93 E5 29.64R  
WARSAW CLOUDY 45 43 93 E7 29.62R WCI 41  
FORT WAYNE CLOUDY 47 44 90 E18 29.59F THUNDER  
6HR MIN TEMP: 45; 6HR MAX TEMP: 50; 6HR PCP: 0.11;  
 
MONTICELLO RAIN 53 52 95 E6 29.61R  
6HR MIN TEMP: 50; 6HR MAX TEMP: 55; 6HR PCP: 0.47;  
 
LOGANSPORT RAIN 52 52 100 N6 29.63R  
PERU/GRISSOM LGT RAIN 56 56 100 W13 29.60R  
6HR MIN TEMP: 48; 6HR MAX TEMP: 56; 6HR PCP: 0.41;  
 
HUNTINGTON TSTM 47 46 96 S6 29.65R  
6HR MIN TEMP: 46; 6HR MAX TEMP: 50; 6HR PCP: 0.66;  
 
MARION LGT RAIN 53 51 93 SW7 29.64R  
RICHMOND CLOUDY 61 54 77 S8 29.60R  
WASHINGTON LGT RAIN 61 54 77 MISG 29.58F  
6HR MIN TEMP: 59; 6HR MAX TEMP: 76; 6HR PCP: 0.29;  
 
MADISON PTCLDY 70 50 49 S9 29.61S  
HUNTINGBURG TSTM 60 57 89 W13G23 29.60R  
6HR MIN TEMP: 60; 6HR MAX TEMP: 76; 6HR PCP: 0.19;  
 
EVANSVILLE MOCLDY 63 57 81 S7 29.58S  
6HR MIN TEMP: 61; 6HR MAX TEMP: 79; 6HR PCP: 0.32;  
 

 
   
..ILLINOIS
 
 
 
CITY SKY/WX TMP DP RH WIND PRES REMARKS  
CHICAGO CLOUDY 42 39 89 NE16 29.63R FOG WCI 34  
MOLINE LGT RAIN 43 40 89 N9 29.60S FOG WCI 38  
ROCKFORD CLOUDY 42 39 89 NE15G24 29.65S WCI 34  
KANKAKEE CLOUDY 51 50 97 E10 29.57F FOG  
PEORIA CLOUDY 50 49 96 NE10 29.55R FOG  
BLOOMINGTON MOCLDY 56 55 97 E6 29.52R  
CHAMPAIGN CLOUDY 57 54 89 SE12 29.54R  
RANTOUL MOCLDY 57 56 96 CALM 29.52S  
DANVILLE CLOUDY 55 54 97 E6 29.53F  
QUINCY LGT RAIN 50 49 96 NW8 29.58R FOG  
SPRINGFIELD LGT RAIN 55 52 89 W23G32 29.53R  
DECATUR CLOUDY 58 57 97 S8 29.54R  
MATTOON MOCLDY 58 56 93 S8 29.56R  
PARIS CLOUDY 55 55 98 E7 29.57F  
EFFINGHAM CLOUDY 59 58 96 W6 29.58R  
ROBINSON CLOUDY 60 57 92 S3 29.57F  
OLNEY CLOUDY 61 61 100 NE5 29.55S  
LAWRENCEVILLE CLOUDY 60 58 92 S12 29.55F  
MOUNT VERNON CLOUDY 58 55 90 VRB7 29.57R  
FAIRFIELD CLEAR 64 59 85 S5 29.53R  
MOUNT CARMEL CLOUDY 61 57 87 S12 29.55F  
CARMI PTCLDY 63 59 88 SW9 29.56R  

 
   
..KENTUCKY
 
 
 
CITY SKY/WX TMP DP RH WIND PRES REMARKS  
LOUISVILLE CLOUDY 76 50 40 S15 29.58F  
PADUCAH CLEAR 61 46 57 W18G26 29.59R  
OWENSBORO TSTM 61 56 83 W23G31 29.60R  
FORT KNOX CLOUDY 71 54 54 S12 29.57F  
LEXINGTON CLOUDY 66 57 72 S13 29.64F  
BOWLING GREEN CLOUDY 69 57 65 W5 29.60F  
JACKSON CLOUDY 77 44 30 S9G21 29.69S  

 
   
..OHIO
 
 
 
CITY SKY/WX TMP DP RH WIND PRES REMARKS  
CINCINNATI CLOUDY 73 51 46 SW18G24 29.61R  
DAYTON CLOUDY 70 52 52 S12 29.60S  
TOLEDO TSTM 40 40 100 NE16G22 29.69S FOG WCI 31  
DEFIANCE LGT RAIN 41 40 96 E15G21 29.65F WCI 33  
FINDLAY LGT RAIN 50 45 83 N10G24 29.62R  
LIMA CLOUDY 53 50 89 E5 29.61S  
WRIGHT-PAT AFB CLOUDY 66 53 63 SW5 29.60R  
COLUMBUS CLOUDY 67 56 67 E13 29.61F  
CLEVELAND CLOUDY 52 40 63 E9 29.74F  

 
   
..MICHIGAN
 
 
 
CITY SKY/WX TMP DP RH WIND PRES REMARKS  
DETROIT TSTM 39 38 96 E9 29.76R FOG WCI 33  
GRAND RAPIDS CLOUDY 37 36 96 E20G28 29.69R WCI 27  
LANSING CLOUDY 39 36 89 E14 29.72F WCI 31  
KALAMAZOO CLOUDY 43 38 82 E9 29.67S WCI 38  
BATTLE CREEK CLOUDY 41 39 93 E14G21 29.67F WCI 33  
MARSHALL CLOUDY 40 40 98 E10G18 29.68F WCI 34  
JACKSON CLOUDY 40 50 100 E13 29.71S WCI 32  
BENTON HARBOR CLOUDY 45 40 82 E13 29.64R WCI 39  
STURGIS CLOUDY 41 40 96 E13G20 29.63F WCI 34  
COLDWATER CLOUDY 41 40 97 E15 29.66F WCI 33  
HILLSDALE CLOUDY 37 37 100 NE14 29.67F WCI 29  

 
   
..OTHER LOCATIONS
 
 
 
CITY SKY/WX TMP DP RH WIND PRES REMARKS  
SAINT LOUIS MO PTCLDY 58 44 60 W17 29.58R  
CAPE GIRARDEAU MOCLDY 60 44 55 SW20G29 29.60R  
MILWAUKEE WI CLOUDY 39 36 89 NE14 29.72F WCI 31  
NASHVILLE TN LGT RAIN 70 58 65 S16G25 29.63S  

 
 
 
 
CLICK HERE TO GO TO PREVIOUS BULLETINS.

The Nexlab IN Page Main Text Page